Meteo Giornale » Osservazioni meteo Spagna » Valladolid-Villanubla
ore: 06:00 - Osservazioni Meteo Valladolid-Villanubla
Lat. 41° 43' N Lon. 4° 51' W Alt. 849 metri s.l.m.
12 °C
Sereno
Temp. 24 Ore
9 °C
28 °C
Nord/Nord-Est
9.3 Km/h
Dew point 10 °C
Umidità 87 %
Visibilità 10 Km
Il sole sorge alle ore 07:45
Il sole tramonta alle ore 20:53
| Data e Ora | Cielo e Fenomeni | T °C | DP °C | Um. % | Pres. hPa | Vis. km | Vento km/h | |
|---|---|---|---|---|---|---|---|---|
| Oggi h: 06:00 | Sereno | 12 | 10 | 87 | 1021 | 10 | N/NE 9.3 | |
| Oggi h: 05:30 | Sereno | 12 | 10 | 87 | 1021 | 10 | N/NE 7.4 | |
| Oggi h: 05:00 | Sereno | 13 | 11 | 87 | 1021 | 10 | NE 13 | |
| Oggi h: 04:30 | Sereno | 13 | 11 | 87 | 1021 | 10 | N 5.5 | |
| Oggi h: 04:00 | Sereno | 13 | 11 | 87 | 1021 | 10 | N 3.7 | |
| Oggi h: 03:30 | Sereno | 14 | 11 | 82 | 1021 | 10 | NE 18.5 | |
| Oggi h: 03:00 | Sereno | 15 | 11 | 76 | 1021 | 10 | E/NE 14.8 | |
| Oggi h: 02:30 | Sereno | 15 | 11 | 76 | 1022 | 10 | E/NE 14.8 | |
| Oggi h: 02:00 | Sereno | 15 | 11 | 76 | 1021 | 10 | E/NE 18.5 | |
| Oggi h: 01:30 | Sereno | 16 | 11 | 72 | 1022 | 10 | NE 18.5 | |
| Oggi h: 01:00 | Sereno | 17 | 11 | 67 | 1022 | 10 | E/NE 20.3 | |
| Oggi h: 00:30 | Sereno | 17 | 11 | 67 | 1022 | 10 | E/NE 14.8 | |
| Oggi h: 00:00 | Sereno | 18 | 11 | 63 | 1022 | 10 | E 14.8 | |
| Ieri h: 23:30 | Sereno | 18 | 10 | 59 | 1022 | 10 | E/NE 13 | |
| Ieri h: 23:00 | Sereno | 19 | 10 | 55 | 1022 | 10 | E/NE 14.8 | |
| Ieri h: 22:30 | Sereno | 20 | 10 | 52 | 1021 | 10 | E/NE 18.5 | |
| Ieri h: 22:00 | Sereno | 20 | 8 | 45 | 1021 | 10 | NE 13 | |
| Ieri h: 21:30 | Sereno | 22 | 6 | 35 | 1020 | 10 | N/NE 14.8 | |
| Ieri h: 21:00 | Sereno | 22 | 6 | 35 | 1020 | 10 | N/NE 11.1 | |
| Ieri h: 20:30 | Sereno | 24 | 6 | 31 | 1020 | 10 | NE 13 | |
| Ieri h: 20:00 | Sereno | 25 | 6 | 29 | 1020 | 10 | NE 11.1 | |
| Ieri h: 19:30 | Sereno | 27 | 4 | 22 | 1020 | 10 | N/NE 7.4 | |
| Ieri h: 19:00 | Sereno | 27 | 5 | 24 | 1020 | 10 | N 7.4 | |
| Ieri h: 18:30 | Sereno | 27 | 4 | 22 | 1020 | 10 | E 7.4 | |
| Ieri h: 18:00 | Sereno | 27 | 4 | 22 | 1021 | 10 | N 5.5 | |
| Ieri h: 17:30 | Sereno | 28 | 4 | 21 | 1021 | 10 | N 3.7 | |
| Ieri h: 17:00 | Sereno | 27 | 5 | 24 | 1021 | 10 | S/SO 7.4 | |
| Ieri h: 16:30 | Sereno | 27 | 5 | 24 | 1021 | 10 | N 5.5 | |
| Ieri h: 16:00 | Sereno | 27 | 5 | 24 | 1022 | 10 | N 3.7 | |
| Ieri h: 15:30 | Sereno | 26 | 7 | 29 | 1022 | 10 | E 7.4 | |
| Ieri h: 15:00 | Sereno | 26 | 7 | 29 | 1022 | 10 | N 7.4 | |
| Ieri h: 14:30 | Sereno | 25 | 7 | 31 | 1022 | 10 | E 7.4 | |
| Ieri h: 14:00 | Sereno | 24 | 8 | 35 | 1023 | 10 | E/NE 7.4 | |
| Ieri h: 13:30 | Sereno | 23 | 9 | 40 | 1023 | 10 | E 7.4 | |
| Ieri h: 13:00 | Sereno | 22 | 10 | 46 | 1023 | 10 | E/NE 7.4 | |
| Ieri h: 12:30 | Sereno | 21 | 10 | 49 | 1023 | 10 | E 7.4 | |
| Ieri h: 12:00 | Sereno | 20 | 10 | 52 | 1023 | 10 | E/NE 9.3 | |
| Ieri h: 11:30 | Sereno | 19 | 10 | 55 | 1023 | 10 | E 11.1 | |
| Ieri h: 11:00 | Sereno | 18 | 10 | 59 | 1023 | 10 | E/NE 13 | |
| Ieri h: 10:30 | Sereno | 17 | 10 | 63 | 1023 | 10 | E/NE 14.8 | |
| Ieri h: 10:00 | Sereno | 15 | 11 | 76 | 1023 | 10 | E/NE 14.8 | |
| Ieri h: 09:30 | Sereno | 14 | 11 | 82 | 1022 | 10 | NE 13 | |
| Ieri h: 09:00 | Sereno | 12 | 11 | 93 | 1022 | 10 | NE 9.3 | |
| Ieri h: 08:30 | Sereno | 10 | 9 | 93 | 1022 | 10 | N/NE 9.3 | |
| Ieri h: 08:00 | Sereno | 9 | 9 | 100 | 1022 | 10 | N/NE 11.1 | |
| Ieri h: 07:30 | Nebbia | 10 | 9 | 93 | 1022 | 10 | N/NE 9.3 | |
| Ieri h: 07:00 | Sereno | 10 | 9 | 93 | 1022 | 10 | N/NE 7.4 | |



